Regional Weather Roundup
Issued by NWS Newport/Morehead, NC

Current Version | Previous Version | Graphics & Text | Print | Product List | Glossary Off
Versions: 1 2 3 4 5 6 7 8 9 10 11 12 13 14 15 16 17 18 19 20 21 22 23 24 25 26 27 28 29 30 31 32 33 34 35 36 37 38 39 40 41 42 43 44 45 46 47 48 49 50

000
ASUS42 KMHX 190710
RWRMHX
WEATHER ROUNDUP FOR EASTERN NORTH CAROLINA
NATIONAL WEATHER SERVICE NEWPORT/MOREHEAD CITY NC
300 AM EDT SAT APR 19 2014

NOTE: "FAIR" INDICATES FEW OR NO CLOUDS BELOW 12,000 FEET
WITH NO SIGNIFICANT WEATHER AND/OR OBSTRUCTIONS TO VISIBILITY

NCZ015>017-031-032-045>047-102-103-190800-
NORTH COAST

CITY           SKY/WX    TMP DP  RH WIND       PRES   REMARKS
EDENTON        CLOUDY    46  44  90 NE6       30.20F
ELIZABETH CITY CLOUDY    47  43  86 NE7       30.21F
KITTY HAWK     CLOUDY    47  46  93 N8        30.18F
MANTEO         CLOUDY    47  46  95 NE14G21   30.19F

$$

NCZ045>047-081-094-103-104-190800-
CENTRAL COAST

CITY           SKY/WX    TMP DP  RH WIND       PRES   REMARKS
FRISCO         CLOUDY    51  51 100 NE14      30.13F FOG
SWANQUARTER      N/A     50 N/A N/A N12G17    30.12F

$$

NCZ095-097-098-100-101-190800-
SOUTHERN COAST

CITY           SKY/WX    TMP DP  RH WIND       PRES   REMARKS
BEAUFORT       LGT RAIN  54  52  93 N17       30.10F
CEDAR ISLAND     N/A     55 N/A N/A N13G28    30.18F
JACKSONVILLE   HVY RAIN  50  50 100 N15       30.11F
NEWPORT          N/A     52  50  93 N8          N/A
PINEY ISLAND   CLOUDY    55  53  93 NE14G22   30.12F
WILMINGTON     HVY RAIN  53  51  93 NE21      30.05F FOG


$$

NCZ011>013-027>030-043-044-078>080-089-090>093-098-190800-
COASTAL PLAIN

CITY           SKY/WX    TMP DP  RH WIND       PRES   REMARKS
AHOSKIE        CLOUDY    46  41  83 N6        30.21F
CLINTON        RAIN      49  49 100 NE7       30.12F
ELIZABETHTOWN  RAIN      52  52 100 NE5       30.09F
GOLDSBORO      LGT RAIN  48  47  98 NE7       30.15S
GREENVILLE     DRIZZLE   46  45  93 NE7       30.18F
HAVELOCK       RAIN      51  49  92 NE14      30.13F
KENANSVILLE    RAIN      47  46  96 NE8       30.14F
KINSTON        RAIN      48  47  93 N7        30.17S
NEW BERN       LGT RAIN  52  48  87 N8        30.15F
RICHLANDS      CLOUDY    48 N/A N/A N12       30.14F
ROANOKE RAPIDS NOT AVBL
ROCKY MOUNT    CLOUDY    49  44  83 NE5       30.20F
WASHINGTON     CLOUDY    47  43  85 N9        30.17F
WHITEVILLE     RAIN      53  51  94 NE10G17   30.06F

$$

AMZ130-135-150-152-154-156-158-170-250-252-270-ANZ085-086-088-633-658-670-190800-
MARINE OBSERVATIONS

STATION/POSITION TIME  TEMP    WIND        PRES    WAVE   SWELL
                       AIR SEA DIR/SP/G            HT/PER HT/PER
                 (UTC) (F)     (DEG/KT/KT) (MB)    (FT/S) (FT/S)
CHESAPEAKE LIGHT 0600   45      20/  9/ 10 1024.4
BUOY 44014       0700   48 49   10/ 14/ 16 1022.1    6/11   5/11
DUCK             0700   47 50   20/ 12/ 14 1021.9
2E DUCK          0700      48                N/A     5/10   2/11
OREGON INLET     0700   48 53  360/ 12/ 16 1021.5
BUOY 44095       0700      48                N/A     6/10   2/11
HATTERAS CG      0700   53 57   40/ 11/ 15 1020.6
DIAMOND BUOY     NOT AVBL
CAPE LOOKOUT     0600   55      30/ 23/ 27 1019.5
BEAUFORT LAB     0700   54 59   20/ 12/ 18 1018.5
30 SE NEW RIVER  0700   58 64   40/ 21/ 27 1017.8    8/ 7   2/ 9
5 SE WRIGHTSVILL 0600   54 59   40/ 25/ 31 1017.5
FRYING PAN BUOY  0700   68 65  110/ 19/ 25 1013.7    9/ 7
BUOY 41001       NOT AVBL
BUOY 41002       NOT AVBL
BUOY 41004       NOT AVBL

$$



USA.gov is the U.S. government's official web portal to all federal, state and local government web resources and services.